Terminal Aerodrome Forecast
Issued by NWS

Home | Current Version | Previous Version | Graphics & Text | Print | Product List | Glossary On
Versions: 1 2 3 4 5 6 7 8 9 10 11 12 13 14 15 16 17 18 19 20 21 22 23 24 25 26 27 28 29 30 31
000
FTUS43 KLOT 211953 AAA
TAFMDW
TAF AMD
KMDW 211953Z 2120/2218 28012G18KT P6SM FEW060
     FM220100 25008KT P6SM SCT080
     FM220700 03011KT P6SM SKC
     FM221400 07008KT P6SM SKC=

USA.gov is the U.S. government's official web portal to all federal, state and local government web resources and services.